Regional Weather Roundup
Issued by NWS State College, PA

Home | Current Version | Previous Version | Graphics & Text | Print | Product List | Glossary On
Versions: 1 2 3 4 5 6 7 8 9 10 11 12 13 14 15 16 17 18 19 20 21 22 23 24 25 26 27 28 29 30 31 32 33 34 35 36 37 38 39 40 41 42 43 44 45 46 47 48 49 50
000
ASUS41 KCTP 170803
RWRCTP

REGIONAL WEATHER ROUNDUP
NATIONAL WEATHER SERVICE STATE COLLEGE PA
300 AM EST SUN DEC 17 2017

Note: "fair" indicates few or no clouds below 12,000 feet with no
significant weather and/or obstructions to visibility.

* = STATION THAT DOES NOT REPORT PRECIPITATION /E.G. RAIN...SNOW...ETC/
    THUNDER OR FOG.

PAZ002>004-007>009-013>016-020>023-029>032-170900-
WESTERN PENNSYLVANIA

CITY           SKY/WX    TMP DP  RH WIND       PRES   REMARKS
ERIE           PTCLDY    24  22  91 E6        30.20R FOG
MEADVILLE      FOG       21  21 100 N3        30.14S VSB 1/4
FRANKLIN*      FOG       22  21  96 NE3       30.14S VSB 1/2
NEW CASTLE     FAIR      22  21  96 CALM      30.16S FOG
BEAVER COUNTY  NOT AVBL
BUTLER*        CLEAR     23  21  92 S3        30.16S
PITTSBURGH INT PTCLDY    37  27  67 SW5       30.16R
PITTSBURGH     CLEAR     34  23  64 S8        30.16R
INDIANA*       PTCLDY    21  21 100 CALM      30.20S
LATROBE        CLEAR     34  25  69 S9        30.19S
WASHINGTON CO* CLEAR     36  26  67 S5        30.21R
$$

PAZ004>006-010>012-017>019-024>028-033>037-041-042-045-046-049>053-170900-
CENTRAL PENNSYLVANIA

CITY           SKY/WX    TMP DP  RH WIND       PRES   REMARKS
BRADFORD       CLOUDY    29  28  96 CALM      30.12R FOG
DUBOIS         PTCLDY    25  22  88 CALM      30.13S FOG
CLEARFIELD     PTCLDY    23  22  96 N3        30.17R
JOHNSTOWN      CLOUDY    36  25  64 SW9       30.13R
ALTOONA        CLOUDY    32  24  72 CALM      30.16R
STATE COLLEGE  MOCLDY    27  25  91 CALM      30.18R
WILLIAMSPORT   CLOUDY    34  26  72 CALM      30.22R
SELINSGROVE    CLOUDY    32  29  88 CALM      30.22R
FT INDIANTOWN  CLOUDY    29  29  99 CALM      30.22R
CAPITAL CITY   CLEAR     27  22  81 CALM      30.23R
HARRISBURG     CLEAR     25  23  92 CALM      30.22R
YORK           CLEAR     21  21 100 CALM      30.21R
$$

PAZ038>040-043-044-047-048-054-055-060>062-067>071-170900-
EASTERN PENNSYLVANIA

CITY           SKY/WX    TMP DP  RH WIND       PRES   REMARKS
SCRANTON       CLOUDY    28  22  78 CALM      30.20R
MOUNT POCONO   CLOUDY    23  22  96 W3        30.14R
ALLENTOWN      CLOUDY    33  25  72 CALM      30.23R
QUAKERTOWN*    CLOUDY    32  27  80 CALM      30.23R
READING        CLOUDY    33  30  88 N6        30.22R
LANCASTER      CLEAR     31  27  85 CALM      30.22R
COATESVILLE    CLOUDY    30  25  80 N3        30.22R
POTTSTOWN      CLOUDY    33  26  75 NE3       30.24R
BLUE BELL      CLOUDY    32  28  86 CALM      30.25R
DOYLESTOWN     CLOUDY    33  26  75 CALM      30.23R
WILLOW GROVE   NOT AVBL
NORTH PHILA    CLOUDY    35  27  72 NE6       30.25R
PHILADELPHIA   PTCLDY    35  26  69 CALM      30.24R
$$



USA.gov is the U.S. government's official web portal to all federal, state and local government web resources and services.